TimeEST,TemperatureF,Dew PointF,Humidity,Sea Level PressureIn,VisibilityMPH,Wind Direction,Wind SpeedMPH,Gust SpeedMPH,PrecipitationIn,Events,Conditions,WindDirDegrees,DateUTC
12:15 AM,53.6,53.6,100,30.27,10.0,North,16.1,20.7,0.00,,Overcast,10,2012-11-14 05:15:00
12:35 AM,53.6,53.6,100,30.27,10.0,North,13.8,21.9,0.00,,Overcast,10,2012-11-14 05:35:00
12:55 AM,53.6,53.6,100,30.27,8.0,North,11.5,18.4,0.00,,Overcast,10,2012-11-14 05:55:00
1:15 AM,53.6,53.6,100,30.27,7.0,North,11.5,18.4,0.00,,Overcast,10,2012-11-14 06:15:00
1:35 AM,53.6,53.6,100,30.27,8.0,North,10.4,-,0.00,,Overcast,10,2012-11-14 06:35:00
1:55 AM,53.6,53.6,100,30.27,10.0,North,12.7,19.6,0.00,,Overcast,10,2012-11-14 06:55:00
2:15 AM,53.6,51.8,94,30.27,10.0,NNE,12.7,-,0.00,,Overcast,20,2012-11-14 07:15:00
2:35 AM,53.6,51.8,94,30.27,10.0,NNE,13.8,20.7,0.00,,Overcast,20,2012-11-14 07:35:00
2:55 AM,53.6,51.8,94,30.27,10.0,North,12.7,17.3,0.00,,Overcast,10,2012-11-14 07:55:00
3:15 AM,53.6,51.8,94,30.27,10.0,NNE,11.5,21.9,0.00,,Overcast,20,2012-11-14 08:15:00
3:35 AM,53.6,51.8,94,30.28,10.0,North,10.4,-,0.00,,Overcast,10,2012-11-14 08:35:00
3:55 AM,53.6,51.8,94,30.28,10.0,North,11.5,18.4,0.00,,Overcast,10,2012-11-14 08:55:00
4:15 AM,51.8,50.0,94,30.28,10.0,NNE,10.4,16.1,0.00,,Overcast,20,2012-11-14 09:15:00
4:35 AM,51.8,48.2,88,30.28,10.0,North,10.4,-,0.00,,Overcast,10,2012-11-14 09:35:00
4:55 AM,51.8,48.2,88,30.29,10.0,NNE,8.1,-,0.00,,Overcast,20,2012-11-14 09:55:00
5:15 AM,51.8,48.2,88,30.30,10.0,NNE,11.5,17.3,0.00,,Overcast,20,2012-11-14 10:15:00
5:35 AM,51.8,48.2,88,30.30,10.0,NNE,8.1,-,0.00,,Overcast,20,2012-11-14 10:35:00
6:50 AM,50.0,46.4,87,30.31,7.0,North,11.5,20.7,N/A,,Overcast,360,2012-11-14 11:50:00
7:50 AM,50.0,46.4,87,30.34,10.0,North,11.5,20.7,N/A,,Overcast,360,2012-11-14 12:50:00
9:50 AM,50.0,46.4,87,30.36,10.0,NNE,11.5,-,N/A,,Overcast,20,2012-11-14 14:50:00
11:50 AM,51.8,46.4,82,30.34,10.0,North,11.5,17.3,N/A,,Overcast,10,2012-11-14 16:50:00
12:50 PM,51.8,46.4,82,30.31,10.0,North,13.8,-,N/A,,Overcast,10,2012-11-14 17:50:00
1:50 PM,53.6,46.4,77,30.30,10.0,North,13.8,-,N/A,,Mostly Cloudy,10,2012-11-14 18:50:00
2:50 PM,53.6,48.2,82,30.29,10.0,NNE,11.5,-,N/A,,Overcast,20,2012-11-14 19:50:00
3:50 PM,53.6,48.2,82,30.27,10.0,NNE,13.8,-,N/A,,Overcast,20,2012-11-14 20:50:00
4:50 PM,53.6,48.2,82,30.27,10.0,NNE,11.5,-,N/A,,Overcast,30,2012-11-14 21:50:00
5:50 PM,51.8,46.4,82,30.28,10.0,NNE,8.1,-,N/A,,Overcast,20,2012-11-14 22:50:00
6:50 PM,53.6,46.4,77,30.28,10.0,NNE,11.5,-,N/A,,Overcast,20,2012-11-14 23:50:00
7:50 PM,53.6,46.4,77,30.30,10.0,NNE,10.4,-,N/A,,Overcast,20,2012-11-15 00:50:00
8:15 PM,53.6,46.4,77,30.29,10.0,North,12.7,19.6,0.00,,Overcast,10,2012-11-15 01:15:00
8:35 PM,53.6,46.4,77,30.29,10.0,North,11.5,18.4,0.00,,Overcast,10,2012-11-15 01:35:00
8:55 PM,53.6,46.4,77,30.29,10.0,North,12.7,17.3,0.00,,Overcast,10,2012-11-15 01:55:00
9:15 PM,53.6,46.4,77,30.29,10.0,North,11.5,19.6,0.00,,Overcast,10,2012-11-15 02:15:00
9:35 PM,53.6,46.4,77,30.29,10.0,NNE,10.4,-,0.00,,Overcast,20,2012-11-15 02:35:00
9:55 PM,53.6,46.4,77,30.28,10.0,North,12.7,20.7,0.00,,Overcast,10,2012-11-15 02:55:00
10:15 PM,53.6,46.4,77,30.27,10.0,North,12.7,19.6,0.00,,Overcast,10,2012-11-15 03:15:00
10:35 PM,51.8,46.4,82,30.27,10.0,North,10.4,19.6,0.00,,Overcast,10,2012-11-15 03:35:00
10:55 PM,51.8,46.4,82,30.27,10.0,NNE,12.7,-,0.00,,Overcast,20,2012-11-15 03:55:00
11:15 PM,51.8,46.4,82,30.25,10.0,North,11.5,17.3,0.00,,Overcast,10,2012-11-15 04:15:00
11:35 PM,51.8,46.4,82,30.25,10.0,NNE,10.4,-,0.00,,Overcast,20,2012-11-15 04:35:00
11:55 PM,51.8,48.2,88,30.24,10.0,NNE,9.2,-,0.00,,Overcast,20,2012-11-15 04:55:00